www.pogodaiklimat.ru

Погода и климат >> Архив погоды >> Россия >> Краснодарский край >> Новороссийск


АРХИВ ПОГОДЫ в Новороссийске

Время (UTC), дата Ветер
(напр.,м/с)
 
Видим.   Явления Облачность Т
(С)
Тd
(С)
f
(%)
Тe
(С)
Тes
(С)
Комфортность P
(гПа)
Po
(гПа)
Тmin
(С)
Tmax
(С)
R
(мм)
R24
(мм)
S
(см)
21 11.08 СВ 10-19
{21}
10 км ясно +23.2 +4.8 30 +23 +23 комфорт 1013.0 1011.7
00 12.08 СВ 12-18
{25}
10 км ясно +20.8 +7.5 42 +21 +21 комфорт 1012.4 1011.1
03 12.08 СВ 12-18
{20}
20 км ясно +19.2 +8.5 50 +19 +19 прохладно 1012.3 1011.0 +19.2
06 12.08 СВ 10-18
{21}
20 км 3/0
[Ci fib]
+22.2 +9.0 43 +24 +24 комфорт 1012.6 1011.3 +19.1
09 12.08 СВ 8-16
{19}
20 км ясно +26.6 +9.7 35 +27 +30 жарко 1012.7 1011.5
12 12.08 СВ 6
{16}
20 км ясно +29.7 +8.2 26 +29 +33 жарко 1013.1 1011.8
15 12.08 З 1
{13}
20 км ясно +28.9 +6.5 24 +28 +29 жарко 1013.4 1012.1 +29.9
18 12.08 В 2 10 км ясно +23.6 +8.2 37 +24 +24 комфорт 1015.0 1013.7
21 12.08 В 3 10 км ясно +22.1 +7.9 40 +23 +23 комфорт 1015.2 1013.9
00 13.08 СВ 3 10 км ясно +21.1 +10.9 52 +23 +23 комфорт 1015.1 1013.8
03 13.08 СВ 3 20 км ясно +22.1 +10.9 49 +24 +24 комфорт 1014.7 1013.4 +21.0
06 13.08 СВ 2 20 км ясно +27.0 +10.6 36 +28 +35 жарко 1015.0 1013.8
09 13.08 СЗ 2 20 км ясно +30.6 +7.6 24 +30 +46 жарко 1014.5 1013.2
12 13.08 Ю 2 20 км ясно +32.1 +5.3 19 +30 +41 жарко 1013.6 1012.4
15 13.08 СВ 1 20 км ясно +31.0 +5.6 20 +29 +31 жарко 1013.2 1011.9 +32.6
18 13.08 СВ 3 10 км ясно +26.5 +10.7 37 +27 +27 жарко 1014.1 1012.9
21 13.08 В 3 10 км ясно +25.4 +7.6 32 +25 +25 комфорт 1013.9 1012.7
00 14.08 СВ 4 10 км ясно +24.0 +10.2 42 +25 +25 комфорт 1013.9 1012.6
03 14.08 СВ 4 20 км ясно +23.8 +8.4 37 +24 +24 комфорт 1013.9 1012.6 +23.6
06 14.08 З 2 20 км ясно +27.0 +12.5 41 +29 +36 жарко 1014.2 1012.9
09 14.08 Ю 2 20 км ясно +32.6 +6.8 20 +31 +47 жарко 1013.6 1012.3
12 14.08 В 4
{11}
20 км ясно +33.4 +4.5 16 +31 +38 жарко 1012.4 1011.2
15 14.08 В 3
{11}
20 км ясно +32.8 +5.3 18 +31 +32 жарко 1011.8 1010.6 +34.1
18 14.08 В 2 10 км ясно +28.8 +9.4 30 +29 +29 жарко 1012.9 1011.6
21 14.08 ЮВ 2 10 км ясно +25.6 +10.3 38 +26 +26 жарко 1012.7 1011.4
00 15.08 В 4 10 км ясно +26.9 +7.9 30 +27 +27 жарко 1012.1 1010.8
03 15.08 В 1 20 км ясно +22.7 +13.6 56 +26 +26 жарко 1012.6 1011.3 +22.7
06 15.08 ЮЗ 2 20 км ясно +28.3 +11.4 35 +29 +37 жарко 1012.4 1011.1 +22.4
09 15.08 СВ 7-12
{12}
20 км ясно +32.6 +8.0 22 +31 +36 жарко 1011.2 1009.9
12 15.08 Ю 2
{13}
20 км ясно +29.5 +18.6 52 +35 +46 очень
душно
1011.4 1010.2
15 15.08 Ю 1 20 км ясно +28.6 +14.8 43 +31 +33 жарко 1010.8 1009.6 +34.9
18 15.08 Ю 1 10 км ясно +27.3 +16.9 53 +31 +31 душно 1010.6 1009.3
21 15.08 штиль 0 10 км ясно +26.7 +10.3 36 +27 +27 жарко 1010.1 1008.8
00 16.08 СВ 7-10
{11}
10 км ясно +26.5 +8.0 31 +26 +26 жарко 1010.4 1009.1
03 16.08 СВ 7-10
{11}
20 км ясно +25.3 +8.3 34 +26 +26 жарко 1009.6 1008.4 +25.0
06 16.08 СВ 5-12
{15}
20 км ясно +28.1 +8.7 30 +28 +32 жарко 1010.1 1008.8
09 16.08 СВ 6-12
{13}
20 км 3/0
[Ci fib]
+31.8 +7.5 22 +30 +36 жарко 1009.8 1008.6
12 16.08 ЮЗ 2
{12}
20 км 3/0
[Cc]
+33.0 +11.5 27 +33 +43 жарко 1009.5 1008.3
15 16.08 ЮЗ 2 20 км 3/0
[Cc]
+29.8 +17.5 48 +34 +35 очень
душно
1009.1 1007.9 +34.0
18 16.08 С 1 10 км ясно +26.1 +18.7 64 +31 +31 очень
душно
1009.6 1008.3
21 16.08 С 2 10 км ясно +28.7 +11.8 35 +30 +30 жарко 1008.9 1007.7
00 17.08 СВ 2
{10}
10 км ясно +26.8 +14.7 47 +29 +29 жарко 1009.3 1008.0
03 17.08 штиль 0 20 км ясно +25.2 +14.0 50 +28 +28 жарко 1009.8 1008.5 +24.8
06 17.08 З 2 20 км 1/1 600 м
[Cu hum]
+27.0 +16.0 51 +30 +37 душно 1010.0 1008.8 +24.5
09 17.08 ЮЗ 2 20 км 3/3 1000 м
[Cu med, cong Cc]
+28.9 +20.8 62 +36 +47 очень
душно
1010.0 1008.8
12 17.08 ЮЗ 2 20 км 1/1 1000 м
[Cu hum]
+29.5 +19.3 54 +35 +45 очень
душно
1009.3 1008.1
15 17.08 ЮЗ 2
{11}
20 км ясно +30.2 +18.7 50 +35 +36 очень
душно
1007.9 1006.7 +33.0
18 17.08 СВ 5-12
{15}
10 км 3/3 600 м
[Sc diur, vesp]
+31.5 +1.8 15 +29 +29 жарко 1008.0 1006.7
21 17.08 В 6-12
{17}
10 км ясно +30.6 +0.4 14 +28 +28 жарко 1007.9 1006.7
00 18.08 СВ 6-12
{15}
10 км 1/1 600 м
[Sc]
+28.2 +4.6 22 +27 +27 жарко 1008.5 1007.3
03 18.08 СВ 4
{12}
20 км 3/0
[Ac trans]
+25.5 +5.3 27 +25 +25 комфорт 1009.7 1008.4 +25.5
06 18.08 ЮВ 2 20 км 1/0
[Ac lent]
+28.6 +6.1 24 +27 +34 жарко 1009.3 1008.1 +24.4
09 18.08 СВ 6-13
{14}
20 км ясно +33.9 +3.3 15 +31 +37 жарко 1008.5 1007.3
12 18.08 С 3
{19}
20 км 3/3 1000 м
[Cu hum Ac trans]
+35.4 +3.8 14 +32 +39 жарко 1008.6 1007.3
15 18.08 СЗ 2
{11}
20 км ясно +33.9 +7.6 20 +32 +33 жарко 1008.7 1007.4 +35.8
18 18.08 СЗ 2
{10}
10 км ясно +29.7 +10.5 30 +30 +30 жарко 1010.3 1009.1

 

Местоположение метеостанции Новороссийск (Краснодарский край, Россия): широта 44.72 долгота 37.85 высота над уровнем моря 3 м.

В архиве по умолчанию представлена погода в Новороссийске за последнюю неделю. Архивные данные за месяц целиком и за предыдущие месяцы, начиная с января 2011 года, Вы можете получить, выбрав интересующий диапазон дат из раскрывающегося списка и нажав кнопку "Ввод!".


*Определитесь, кто Вы:
робот инопланетянин человек

Внимание! Время в таблицах - всемирное. Для получения местного времени необходимо прибавить поправку, которая в Новороссийске равна 3 ч.

Смотрите также архив погоды в соседних городах и на ближайших метеорологических станциях:

Погода в Геленджике (Краснодарский край, Россия) (25 км)
Погода в Крымске (Краснодарский край, Россия) (25 км)
Погода в Анапе (Краснодарский край, Россия) (48 км)
Погода в Славянске-на-Кубани (Краснодарский край, Россия) (66 км)
Погода в Темрюке (Краснодарский край, Россия) (76 км)
Погода в Джубге (Краснодарский край, Россия) (81 км)
Погода в Горячем Ключе (Краснодарский край, Россия) (99 км)
Погода в Краснодаре (Краснодарский край, Россия) (100 км)
Погода в Тамани (Краснодарский край, Россия) (105 км)
Погода в Туапсе (Краснодарский край, Россия) (119 км)

Пояснения к столбцам:

Ветер - указаны скорость ветра в м/с - средняя за 10 мин, порывы в срок и между сроками (в фигурных скобках) и направление, откуда дует ветер: С - северный, СВ - северо-восточный, В - восточный, ЮВ - юго-восточный, Ю - южный, ЮЗ - юго-западный, З - западный, СЗ - северо-западный.
Видимость - горизонтальная дальность видимости в метрах или километрах. При видимости от 1 до 10 км при отсутствии осадков обычно наблюдается дымка, при ухудшении видимости до 1 км и менее - туман. В сухую погоду видимость может ухудшаться дымом, пылью или мглою.
Явления - указаны атмосферные явления, наблюдавшиеся в срок или в последний час перед сроком; фигурными скобками обозначены явления, наблюдавшиеся между сроками (за 1-3 часа до срока); квадратными скобками обозначены град или гололедные отложения с указанием их диаметра в мм.
Облачность - указаны через наклонную черту общая и нижняя облачность в баллах и высота нижней границы облаков в метрах; квадратными скобками обозначены формы облаков: Ci - перистые, Cs - перисто-слоистые, Cc - перисто-кучевые, Ac - высококучевые, As - высокослоистые, Sc - слоисто-кучевые, Ns - слоисто-дождевые, Cu - кучевые, Cb - кучево-дождевые. Подробнее классификацию облаков см. в Атласе облаков (PDF).
T - Температура воздуха - температура, измеренная на высоте 2 м над землей.
Td - Температура точки росы - температура, при понижении до которой содержащийся в воздухе водяной пар достигнет насыщения.
f - Относительная влажность воздуха - влажноcть воздуха, измеренная на высоте 2 м над землей.
Te - Эффективная температура - температура, которую ощущает одетый по сезону человек в тени. Характеристика душности погоды. При расчете учитывается влияние влажности воздуха и скорости ветра на теплоощущения человека.
Tes - Эффективная температура на солнце - температура, которую ощущает человек, с поправкой на солнечный нагрев. Характеристика знойности погоды. Зависит от высоты солнца над горизонтом, облачности и скорости ветра. Ночью, в пасмурную погоду, а также при ветре 12 м/с и более поправка равна нулю.
P - Атмосферное давление - приведенное к уровню моря атмосферное давление.
Po - Атмосферное давление - измеренное на уровне метеостанции атмосферное давление.
Tmin - Минимальная температура - минимум температуры воздуха на высоте 2 м над землей.
Tmax - Максимальная температура - максимум температуры воздуха на высоте 2 м над землей.
R - Количество осадков - Количество выпавших осадков за период времени, мм. При наведении курсора мыши на число - период времени, за который выпало указанное количество осадков.
R24 - Количество осадков - Количество выпавших осадков за 24 часа, мм.
S - Снежный покров - Высота снежного покрова, см. При наведении курсора мыши на число - состояние снежного покрова и степень покрытия местности в баллах.